WZZ2017 LKPR-EPMO

Flight info

Callsign WZZ2017
Flight time 0h 57m
Altitude 35000
Route ARTUP DCT LAGAR N871 OKENO Q277 GOGUS
Aircraft A321/M-SDE3FGHIRWY/LB1

Departure

Time 2026-04-22 19:04
Airport Václav Havel Airport Prague (LKPR)

Arrival

Time 2026-04-22 20:01
Airport Warsaw Modlin Airport (EPMO)
Time Latitude Longitude Altitude Speed Heading
2026-04-22 18:11 50.10857 14.26470 1169 ft 0 kts 34°
2026-04-22 18:45 50.10852 14.26465 1174 ft 4 kts 33°
2026-04-22 18:45 50.10830 14.26442 1170 ft 4 kts 39°
2026-04-22 18:45 50.10813 14.26415 1170 ft 4 kts 59°
2026-04-22 18:46 50.10805 14.26378 1170 ft 4 kts 91°
2026-04-22 18:46 50.10810 14.26339 1170 ft 4 kts 118°
2026-04-22 18:46 50.10826 14.26307 1171 ft 4 kts 150°
2026-04-22 18:46 50.10846 14.26301 1170 ft 4 kts 212°
2026-04-22 18:47 50.10869 14.26324 1171 ft 4 kts 214°
2026-04-22 18:47 50.10890 14.26346 1170 ft 2 kts 215°
2026-04-22 18:47 50.10891 14.26348 1170 ft 0 kts 215°
2026-04-22 18:51 50.10890 14.26346 1170 ft 2 kts 215°
2026-04-22 18:51 50.10854 14.26308 1172 ft 9 kts 214°
2026-04-22 18:52 50.10796 14.26248 1173 ft 11 kts 214°
2026-04-22 18:52 50.10732 14.26180 1172 ft 12 kts 214°
2026-04-22 18:52 50.10662 14.26107 1170 ft 13 kts 214°
2026-04-22 18:52 50.10596 14.26040 1170 ft 11 kts 210°
2026-04-22 18:53 50.10532 14.25982 1174 ft 11 kts 198°
2026-04-22 18:53 50.10462 14.26056 1173 ft 17 kts 128°
2026-04-22 18:53 50.10388 14.26208 1175 ft 18 kts 127°
2026-04-22 18:53 50.10312 14.26365 1174 ft 19 kts 127°
2026-04-22 18:54 50.10234 14.26528 1172 ft 19 kts 127°
2026-04-22 18:54 50.10154 14.26691 1177 ft 19 kts 127°
2026-04-22 18:54 50.10072 14.26862 1188 ft 20 kts 127°
2026-04-22 18:54 50.09999 14.27014 1196 ft 16 kts 127°
2026-04-22 18:55 50.09935 14.27145 1200 ft 14 kts 127°
2026-04-22 18:55 50.09873 14.27272 1202 ft 17 kts 128°
2026-04-22 18:55 50.09792 14.27407 1204 ft 17 kts 135°
2026-04-22 18:55 50.09708 14.27536 1206 ft 17 kts 135°
2026-04-22 18:56 50.09628 14.27659 1210 ft 15 kts 136°
2026-04-22 18:56 50.09555 14.27769 1212 ft 15 kts 135°
2026-04-22 18:56 50.09484 14.27877 1215 ft 14 kts 135°
2026-04-22 18:56 50.09417 14.27980 1215 ft 14 kts 135°
2026-04-22 18:57 50.09343 14.28091 1215 ft 15 kts 136°
2026-04-22 18:57 50.09287 14.28181 1214 ft 0 kts 135°
2026-04-22 18:57 50.09287 14.28182 1214 ft 1 kts 135°
2026-04-22 18:58 50.09252 14.28235 1213 ft 12 kts 136°
2026-04-22 18:58 50.09168 14.28277 1211 ft 14 kts 193°
2026-04-22 18:58 50.09140 14.28255 1211 ft 0 kts 215°
2026-04-22 19:02 50.09129 14.28242 1211 ft 7 kts 219°
2026-04-22 19:02 50.09090 14.28125 1209 ft 17 kts 260°
2026-04-22 19:02 50.09115 14.28021 1209 ft 0 kts 305°
2026-04-22 19:03 50.09150 14.27948 1211 ft 35 kts 307°
2026-04-22 19:03 50.09445 14.27336 1209 ft 104 kts 307°
2026-04-22 19:03 50.10012 14.26169 1201 ft 160 kts 308°
2026-04-22 19:04 50.10691 14.24791 1793 ft 158 kts 309°
2026-04-22 19:04 50.11348 14.23433 2447 ft 159 kts 310°
2026-04-22 19:04 50.12023 14.22032 3135 ft 163 kts 310°
2026-04-22 19:04 50.12737 14.20555 3429 ft 182 kts 310°
2026-04-22 19:05 50.13541 14.18895 3584 ft 202 kts 310°
2026-04-22 19:05 50.14437 14.17045 3686 ft 227 kts 310°
2026-04-22 19:05 50.15430 14.14985 4051 ft 245 kts 310°
2026-04-22 19:05 50.16468 14.12822 4728 ft 253 kts 310°
2026-04-22 19:06 50.17529 14.10606 5310 ft 256 kts 309°
2026-04-22 19:06 50.18598 14.08367 6025 ft 261 kts 310°
2026-04-22 19:06 50.19323 14.06853 6190 ft 263 kts 309°
2026-04-22 19:07 50.21535 14.02274 6364 ft 267 kts 314°
2026-04-22 19:07 50.22932 14.00393 7111 ft 265 kts 330°
2026-04-22 19:07 50.24594 13.99200 7874 ft 263 kts 346°
2026-04-22 19:07 50.26402 13.98784 8650 ft 263 kts 359°
2026-04-22 19:08 50.28240 13.98655 9442 ft 265 kts 359°
2026-04-22 19:08 50.30085 13.98524 10225 ft 266 kts 359°
2026-04-22 19:08 50.31967 13.98559 10642 ft 280 kts 13°
2026-04-22 19:08 50.33737 13.99987 10789 ft 302 kts 41°
2026-04-22 19:09 50.35072 14.02691 10916 ft 327 kts 58°
2026-04-22 19:09 50.35983 14.06073 11171 ft 347 kts 71°
2026-04-22 19:09 50.36491 14.09805 11756 ft 353 kts 75°
2026-04-22 19:09 50.36986 14.13636 12420 ft 356 kts 75°
2026-04-22 19:10 50.37479 14.17457 13086 ft 358 kts 75°
2026-04-22 19:10 50.37966 14.21300 13773 ft 361 kts 76°
2026-04-22 19:10 50.38442 14.25127 14408 ft 364 kts 76°
2026-04-22 19:10 50.38918 14.29032 15016 ft 366 kts 76°
2026-04-22 19:11 50.39390 14.32971 15647 ft 368 kts 76°
2026-04-22 19:11 50.39941 14.36894 16133 ft 369 kts 69°
2026-04-22 19:11 50.41088 14.40451 16245 ft 365 kts 56°
2026-04-22 19:11 50.42452 14.43809 16287 ft 365 kts 56°
2026-04-22 19:12 50.43819 14.47158 16275 ft 364 kts 56°
2026-04-22 19:12 50.45188 14.50511 16280 ft 365 kts 56°
2026-04-22 19:12 50.46551 14.53860 16279 ft 363 kts 56°
2026-04-22 19:12 50.47912 14.57211 16278 ft 363 kts 56°
2026-04-22 19:13 50.49268 14.60565 16281 ft 363 kts 56°
2026-04-22 19:13 50.50621 14.63917 16274 ft 363 kts 56°
2026-04-22 19:13 50.51955 14.67229 16272 ft 363 kts 56°
2026-04-22 19:13 50.53301 14.70579 16268 ft 363 kts 56°
2026-04-22 19:14 50.54650 14.73942 16277 ft 364 kts 56°
2026-04-22 19:14 50.55995 14.77301 16268 ft 364 kts 56°
2026-04-22 19:14 50.57346 14.80676 16272 ft 364 kts 56°
2026-04-22 19:14 50.58697 14.84044 16275 ft 363 kts 56°
2026-04-22 19:15 50.60045 14.87406 16263 ft 363 kts 56°
2026-04-22 19:15 50.61392 14.90779 16265 ft 363 kts 56°
2026-04-22 19:15 50.62734 14.94145 16261 ft 364 kts 56°
2026-04-22 19:15 50.64091 14.97561 16727 ft 369 kts 57°
2026-04-22 19:16 50.65453 15.00998 17350 ft 370 kts 57°
2026-04-22 19:16 50.66820 15.04453 17991 ft 373 kts 57°
2026-04-22 19:16 50.68195 15.07932 18594 ft 375 kts 57°
2026-04-22 19:16 50.69578 15.11431 19127 ft 377 kts 57°
2026-04-22 19:17 50.70974 15.14959 19671 ft 379 kts 57°
2026-04-22 19:17 50.72370 15.18493 20186 ft 381 kts 57°
2026-04-22 19:17 50.73779 15.22055 20698 ft 383 kts 57°
2026-04-22 19:17 50.75174 15.25585 21176 ft 385 kts 58°
2026-04-22 19:18 50.76589 15.29177 21646 ft 387 kts 58°
2026-04-22 19:18 50.78014 15.32807 22133 ft 390 kts 58°
2026-04-22 19:18 50.79408 15.36491 22557 ft 392 kts 62°
2026-04-22 19:18 50.80515 15.40466 22936 ft 397 kts 68°
2026-04-22 19:19 50.81553 15.44529 23362 ft 400 kts 68°
2026-04-22 19:19 50.82598 15.48622 23783 ft 403 kts 68°
2026-04-22 19:19 50.83587 15.52786 24156 ft 405 kts 70°
2026-04-22 19:19 50.84484 15.57031 24551 ft 407 kts 72°
2026-04-22 19:20 50.85323 15.61319 24948 ft 409 kts 72°
2026-04-22 19:20 50.86144 15.65638 25345 ft 410 kts 72°
2026-04-22 19:20 50.86969 15.69965 25736 ft 411 kts 72°
2026-04-22 19:20 50.87797 15.74302 26132 ft 412 kts 72°
2026-04-22 19:21 50.88642 15.78641 26504 ft 413 kts 72°
2026-04-22 19:21 50.89505 15.82996 26866 ft 414 kts 72°
2026-04-22 19:21 50.90376 15.87349 27239 ft 416 kts 72°
2026-04-22 19:21 50.91254 15.91726 27599 ft 418 kts 72°
2026-04-22 19:22 50.92134 15.96114 27956 ft 419 kts 72°
2026-04-22 19:22 50.93012 16.00519 28337 ft 419 kts 72°
2026-04-22 19:22 50.93881 16.04921 28807 ft 417 kts 72°
2026-04-22 19:22 50.94743 16.09305 29254 ft 416 kts 72°
2026-04-22 19:23 50.95602 16.13679 29750 ft 415 kts 72°
2026-04-22 19:23 50.96455 16.18034 30245 ft 413 kts 72°
2026-04-22 19:23 50.97289 16.22306 30665 ft 410 kts 72°
2026-04-22 19:23 50.98129 16.26620 31129 ft 407 kts 72°
2026-04-22 19:24 50.98958 16.30892 31630 ft 402 kts 72°
2026-04-22 19:24 50.99776 16.35117 32124 ft 398 kts 73°
2026-04-22 19:24 51.00584 16.39302 32620 ft 394 kts 73°
2026-04-22 19:24 51.01378 16.43422 33120 ft 389 kts 73°
2026-04-22 19:25 51.02167 16.47520 33598 ft 385 kts 73°
2026-04-22 19:25 51.02941 16.51557 34066 ft 381 kts 73°
2026-04-22 19:25 51.03710 16.55565 34473 ft 378 kts 73°
2026-04-22 19:25 51.04474 16.59546 34742 ft 377 kts 73°
2026-04-22 19:26 51.05239 16.63542 34937 ft 379 kts 73°
2026-04-22 19:26 51.06005 16.67561 35126 ft 381 kts 73°
2026-04-22 19:26 51.06773 16.71603 35192 ft 383 kts 73°
2026-04-22 19:27 51.08308 16.79719 35206 ft 383 kts 73°
2026-04-22 19:27 51.09839 16.87827 35196 ft 383 kts 73°
2026-04-22 19:28 51.11365 16.95899 35194 ft 383 kts 73°
2026-04-22 19:28 51.12899 17.04011 35187 ft 382 kts 70°
2026-04-22 19:28 51.14115 17.07760 35196 ft 383 kts 58°
2026-04-22 19:29 51.15595 17.11303 35193 ft 384 kts 58°
2026-04-22 19:29 51.18565 17.18393 35206 ft 385 kts 58°
2026-04-22 19:30 51.21034 17.24298 35199 ft 385 kts 58°
2026-04-22 19:30 51.24500 17.32619 35189 ft 385 kts 58°
2026-04-22 19:31 51.27466 17.39759 35193 ft 385 kts 58°
2026-04-22 19:31 51.30422 17.46900 35199 ft 385 kts 58°
2026-04-22 19:32 51.33369 17.54052 35200 ft 385 kts 58°
2026-04-22 19:32 51.36309 17.61208 35195 ft 385 kts 58°
2026-04-22 19:33 51.39243 17.68373 35194 ft 384 kts 58°
2026-04-22 19:33 51.42177 17.75533 35164 ft 384 kts 58°
2026-04-22 19:34 51.45103 17.82690 35171 ft 384 kts 58°
2026-04-22 19:34 51.48001 17.89808 35171 ft 384 kts 58°
2026-04-22 19:35 51.50921 17.96984 35169 ft 384 kts 58°
2026-04-22 19:35 51.53341 18.02960 35171 ft 384 kts 58°
2026-04-22 19:36 51.56735 18.11371 35187 ft 384 kts 58°
2026-04-22 19:36 51.59636 18.18585 35159 ft 384 kts 58°
2026-04-22 19:37 51.62528 18.25796 35151 ft 383 kts 58°
2026-04-22 19:37 51.65415 18.33011 35143 ft 383 kts 58°
2026-04-22 19:38 51.68297 18.40238 35157 ft 384 kts 58°
2026-04-22 19:38 51.71166 18.47435 35145 ft 384 kts 58°
2026-04-22 19:39 51.74048 18.54697 35143 ft 384 kts 58°
2026-04-22 19:39 51.76929 18.61975 35132 ft 384 kts 58°
2026-04-22 19:40 51.79803 18.69264 35133 ft 385 kts 58°
2026-04-22 19:40 51.82673 18.76557 35137 ft 384 kts 58°
2026-04-22 19:41 51.85544 18.83855 35151 ft 384 kts 58°
2026-04-22 19:41 51.88403 18.91157 35142 ft 384 kts 58°
2026-04-22 19:42 51.91255 18.98472 35131 ft 384 kts 58°
2026-04-22 19:42 51.92679 19.02140 34692 ft 383 kts 58°
2026-04-22 19:42 51.94086 19.05767 34158 ft 380 kts 58°
2026-04-22 19:42 51.95491 19.09387 33435 ft 380 kts 58°
2026-04-22 19:43 51.98335 19.16715 31933 ft 388 kts 58°
2026-04-22 19:43 51.99777 19.20441 31211 ft 392 kts 58°
2026-04-22 19:43 52.01235 19.24217 30514 ft 397 kts 58°
2026-04-22 19:44 52.02710 19.28045 29753 ft 402 kts 57°
2026-04-22 19:44 52.04204 19.31928 28874 ft 408 kts 57°
2026-04-22 19:44 52.05716 19.35856 27967 ft 413 kts 57°
2026-04-22 19:44 52.07245 19.39841 27055 ft 418 kts 56°
2026-04-22 19:45 52.08790 19.43875 26076 ft 423 kts 56°
2026-04-22 19:45 52.10347 19.47947 25139 ft 426 kts 56°
2026-04-22 19:45 52.11892 19.51999 24232 ft 428 kts 55°
2026-04-22 19:45 52.13462 19.56117 23282 ft 429 kts 55°
2026-04-22 19:46 52.15054 19.60297 22228 ft 430 kts 55°
2026-04-22 19:46 52.16600 19.64366 21679 ft 422 kts 55°
2026-04-22 19:46 52.18114 19.68374 21223 ft 411 kts 55°
2026-04-22 19:46 52.19602 19.72308 20579 ft 406 kts 54°
2026-04-22 19:47 52.21078 19.76214 19929 ft 401 kts 54°
2026-04-22 19:47 52.22531 19.80062 19365 ft 395 kts 54°
2026-04-22 19:47 52.23502 19.82635 18975 ft 393 kts 54°
2026-04-22 19:47 52.25384 19.87621 18221 ft 388 kts 54°
2026-04-22 19:48 52.26791 19.91359 17655 ft 383 kts 54°
2026-04-22 19:48 52.28175 19.95042 17137 ft 379 kts 54°
2026-04-22 19:48 52.29542 19.98691 16643 ft 374 kts 54°
2026-04-22 19:48 52.30894 20.02299 16145 ft 369 kts 54°
2026-04-22 19:49 52.32222 20.05852 15655 ft 364 kts 54°
2026-04-22 19:49 52.33533 20.09372 15168 ft 360 kts 54°
2026-04-22 19:49 52.34827 20.12851 14675 ft 355 kts 54°
2026-04-22 19:49 52.36103 20.16277 14195 ft 350 kts 54°
2026-04-22 19:50 52.37364 20.19669 13674 ft 347 kts 54°
2026-04-22 19:50 52.38609 20.23026 13168 ft 342 kts 54°
2026-04-22 19:50 52.39827 20.26305 12654 ft 340 kts 54°
2026-04-22 19:50 52.40652 20.28531 12310 ft 338 kts 55°
2026-04-22 19:51 52.42268 20.32890 11624 ft 336 kts 55°
2026-04-22 19:51 52.43473 20.36150 11113 ft 334 kts 55°
2026-04-22 19:51 52.44652 20.39350 10937 ft 320 kts 55°
2026-04-22 19:51 52.45408 20.41415 10845 ft 305 kts 55°
2026-04-22 19:52 52.46446 20.44262 10697 ft 286 kts 54°
2026-04-22 19:52 52.47451 20.47013 10345 ft 278 kts 54°
2026-04-22 19:52 52.48450 20.49726 10105 ft 276 kts 54°
2026-04-22 19:52 52.49441 20.52415 9908 ft 275 kts 54°
2026-04-22 19:53 52.50436 20.55115 9768 ft 276 kts 54°
2026-04-22 19:53 52.51427 20.57816 9633 ft 276 kts 54°
2026-04-22 19:53 52.52418 20.60526 9495 ft 276 kts 54°
2026-04-22 19:53 52.53279 20.63366 9356 ft 281 kts 66°
2026-04-22 19:54 52.53695 20.66525 9237 ft 285 kts 77°
2026-04-22 19:54 52.53988 20.69747 9060 ft 286 kts 77°
2026-04-22 19:54 52.54283 20.72976 8679 ft 286 kts 77°
2026-04-22 19:54 52.54580 20.76211 8267 ft 286 kts 77°
2026-04-22 19:55 52.54877 20.79439 7857 ft 286 kts 77°
2026-04-22 19:55 52.55175 20.82687 7448 ft 287 kts 77°
2026-04-22 19:55 52.55473 20.85941 7026 ft 289 kts 77°
2026-04-22 19:55 52.55771 20.89210 6602 ft 290 kts 79°
2026-04-22 19:56 52.55629 20.92519 6165 ft 297 kts 109°
2026-04-22 19:56 52.54462 20.95268 5699 ft 294 kts 143°
2026-04-22 19:56 52.52674 20.96661 5270 ft 280 kts 169°
2026-04-22 19:56 52.50783 20.97147 4826 ft 270 kts 182°
2026-04-22 19:57 52.49052 20.96449 4432 ft 248 kts 220°
2026-04-22 19:57 52.47983 20.94460 4093 ft 229 kts 251°
2026-04-22 19:57 52.47612 20.92021 3805 ft 217 kts 267°
2026-04-22 19:57 52.47386 20.89590 3473 ft 213 kts 267°
2026-04-22 19:58 52.47166 20.87243 3180 ft 202 kts 267°
2026-04-22 19:58 52.46957 20.85073 2876 ft 184 kts 268°
2026-04-22 19:58 52.46770 20.83120 2609 ft 161 kts 269°
2026-04-22 19:58 52.46606 20.81403 2365 ft 147 kts 270°
2026-04-22 19:59 52.46455 20.79775 2132 ft 142 kts 270°
2026-04-22 20:00 52.45588 20.70322 802 ft 138 kts 265°
2026-04-22 20:00 52.45448 20.68779 570 ft 136 kts 264°
2026-04-22 20:01 52.45310 20.67255 393 ft 134 kts 264°
2026-04-22 20:01 52.45184 20.65793 340 ft 116 kts 262°
2026-04-22 20:01 52.45083 20.64769 338 ft 66 kts 261°
2026-04-22 20:01 52.45036 20.64394 333 ft 9 kts 220°
2026-04-22 20:02 52.45010 20.64382 339 ft 5 kts 184°
2026-04-22 20:02 52.44934 20.64385 338 ft 16 kts 179°
2026-04-22 20:02 52.44825 20.64378 338 ft 16 kts 183°
2026-04-22 20:02 52.44722 20.64391 336 ft 12 kts 135°
2026-04-22 20:03 52.44723 20.64537 336 ft 14 kts 82°
2026-04-22 20:03 52.44739 20.64697 333 ft 15 kts 79°
2026-04-22 20:03 52.44756 20.64870 338 ft 16 kts 82°
2026-04-22 20:03 52.44773 20.65059 337 ft 17 kts 81°
2026-04-22 20:04 52.44789 20.65233 338 ft 9 kts 86°
2026-04-22 20:04 52.44758 20.65265 338 ft 5 kts 194°
2026-04-22 20:04 52.44750 20.65260 335 ft 2 kts 200°
2026-04-22 20:04 52.44743 20.65256 334 ft 0 kts 203°
2026-04-22 20:05 52.44743 20.65255 334 ft 0 kts 203°